Wind_Speed
3 3 3 4 4 4 4 5 4 5 5 4 4 4 4 4 3 3 3 2 2 1 1 1 0 1 1 1 2 2 2 2 2 2 1 1 1 0 1 1 2 2 3 3 2 3 3 3 4
3 3 3 3 3 3 4 4 4 4 4 4 4 4 4 4 3 3 2 2 2 1 1 1 1 0 0 1 1 1 1 1 1 1 1 0 0 1 2 2 3 3 3 3 3 3 4 4 4
2 3 2 2 2 3 4 4 3 4 4 4 3 3 3 3 3 3 3 2 2 2 2 2 2 1 1 1 1 1 1 2 2 2 2 2 2 3 3 3 3 4 4 5 4 4 4 5 5
1 2 2 2 2 3 4 4 4 4 5 4 3 3 3 3 3 3 3 3 3 3 3 3 3 3 3 3 3 3 3 3 3 3 3 3 3 3 4 4 4 4 5 5 5 5 5 5 5
1 1 2 2 2 3 4 4 4 4 5 4 4 4 3 3 3 3 3 3 3 3 3 4 5 5 5 5 5 4 4 4 4 4 5 4 4 4 4 5 5 5 5 6 6 6 6 5 5
0 1 2 2 3 3 4 4 4 5 5 5 5 4 4 4 4 4 4 4 4 4 5 5 6 6 6 6 5 6 5 5 5 5 5 6 5 5 6 6 6 6 6 7 7 7 7 6 6
1 1 2 2 3 3 4 4 5 5 5 5 5 5 5 5 4 5 5 5 5 5 6 7 7 7 7 7 6 6 6 6 6 7 7 7 6 6 6 7 6 7 7 8 8 7 7 7 7
1 2 2 3 4 4 4 4 5 5 5 5 5 6 6 5 5 5 5 5 6 6 6 7 7 8 8 7 7 7 8 7 7 8 7 8 8 7 7 8 8 8 9 9 9 8 8 8 8
3 3 3 3 4 4 4 4 5 5 5 5 6 6 6 5 5 6 7 7 7 7 7 7 8 8 8 8 8 9 9 8 8 9 9 9 9 9 9 9 10 10 10 10 10 9 9 9 9
4 4 4 4 4 4 5 5 5 6 6 6 6 6 6 6 6 6 7 8 8 8 8 7 7 8 9 9 9 10 10 10 10 11 10 10 10 10 10 11 10 10 11 11 10 10 10 9 9
4 5 5 5 5 5 6 6 6 5 6 6 6 6 7 7 7 6 7 8 8 8 8 8 9 9 9 10 10 11 11 11 11 11 11 11 11 11 11 11 11 11 11 11 10 10 10 10 10
5 4 5 5 5 6 6 7 7 6 7 7 7 7 7 7 7 7 7 8 8 8 8 8 8 9 9 10 11 11 11 11 11 11 11 11 11 11 11 11 11 11 11 11 11 10 10 10 10
5 4 4 5 5 6 6 7 8 8 8 7 7 7 7 7 7 7 7 7 7 8 8 8 8 8 9 9 10 10 11 10 11 11 11 11 11 11 11 11 11 11 11 11 12 12 12 12 11
5 5 5 6 6 6 7 7 7 8 8 8 8 8 8 8 8 7 7 7 8 8 8 8 8 9 9 9 10 10 10 10 11 11 11 11 11 11 12 11 11 10 11 11 12 12 12 12 12
5 5 6 6 6 6 6 7 7 7 8 8 8 9 8 8 8 8 8 8 8 8 8 9 9 9 10 10 10 11 11 11 11 11 11 11 11 12 12 12 12 11 11 12 12 12 12 13 12
5 5 6 6 7 7 6 7 7 7 7 8 8 9 9 9 9 9 8 8 9 9 9 9 9 10 9 10 11 11 11 10 10 10 10 11 11 11 11 12 12 11 11 12 12 12 12 12 12
5 5 6 7 7 6 7 7 7 7 7 8 9 9 9 9 9 9 9 9 9 10 10 10 10 10 10 10 11 11 11 11 11 10 11 11 11 11 11 11 11 11 11 11 11 11 11 11 11
6 6 7 7 7 7 7 7 7 7 8 8 9 9 10 9 10 10 10 10 10 10 10 10 10 10 10 10 10 10 11 11 10 10 11 11 11 11 11 11 11 10 10 11 10 10 10 10 10
7 7 7 8 8 8 7 8 8 8 8 8 9 10 10 10 10 10 11 11 11 11 11 11 11 11 11 10 10 10 11 10 11 11 12 11 11 11 11 11 10 10 10 10 10 10 9 9 9
7 7 8 9 9 9 8 8 9 10 10 10 10 10 11 11 11 11 11 11 11 11 11 11 11 11 11 10 11 11 11 11 12 12 12 11 11 11 11 11 10 10 10 9 9 9 9 8 8
8 9 9 9 9 9 9 9 10 10 10 10 11 11 11 11 11 11 11 12 12 12 12 12 12 11 11 12 12 12 13 13 12 12 12 12 11 11 11 11 10 10 9 8 9 9 9 8 8
9 10 10 10 9 10 9 10 10 11 11 11 11 11 11 12 12 11 11 12 12 12 12 12 12 12 12 12 12 12 13 13 12 12 12 12 12 11 10 10 10 10 9 9 9 10 10 9 9
10 10 10 10 10 11 11 11 12 12 12 12 12 12 12 12 12 12 12 12 12 13 13 13 13 12 12 12 12 13 13 13 13 12 12 12 12 12 11 11 11 11 11 11 11 10 9 9 9
11 11 11 11 11 12 12 12 12 12 12 13 13 13 13 13 13 13 12 12 13 13 14 14 13 13 13 12 12 13 13 12 12 12 12 13 13 13 13 12 12 12 12 12 11 11 10 9 9
10 10 11 12 12 13 13 13 13 13 12 13 13 14 14 14 13 13 13 13 13 14 15 14 13 13 13 13 13 13 13 13 13 13 13 13 14 14 14 13 13 13 12 12 12 11 11 10 10
11 11 11 12 13 13 13 13 13 13 13 13 13 14 14 14 14 14 14 13 14 14 14 14 14 14 13 13 13 13 13 13 13 13 13 13 14 14 13 13 14 13 12 12 12 12 11 11 10
12 11 12 13 13 14 14 14 14 14 14 13 13 14 14 14 15 15 15 15 14 14 14 14 14 14 14 14 14 14 13 13 13 13 13 13 13 13 13 13 14 14 13 13 13 13 12 12 11
13 13 13 13 14 15 15 15 15 14 14 14 14 14 15 15 15 15 16 16 16 15 15 15 15 15 15 15 15 15 14 14 14 14 14 14 14 14 14 14 14 14 14 13 13 13 13 12 13
15 15 15 15 15 16 16 16 16 16 16 16 16 16 16 16 16 16 16 16 16 16 16 16 16 16 16 16 16 16 15 15 14 15 15 15 15 15 15 15 14 14 14 14 14 14 14 13 14
16 16 16 17 17 17 18 18 17 17 17 17 17 17 17 17 18 17 17 17 17 17 17 17 17 17 16 16 16 16 15 15 15 15 15 15 15 15 15 15 15 15 15 15 15 16 15 15 15
Wind_Direction
124 127 132 133 138 140 149 152 152 145 154 165 168 173 175 177 177 178 162 163 165 156 148 174 142 70 87 106 129 140 135 133 132 127 113 104 109 300 316 312 313 320 328 334 340 339 334 330 319
133 134 136 140 146 165 171 170 172 164 164 167 172 181 189 187 183 188 187 193 197 215 218 238 247 214 163 134 139 164 176 185 183 200 214 248 298 293 290 296 305 311 309 312 321 326 328 324 318
140 144 140 146 168 184 190 187 188 182 180 180 180 177 184 189 191 203 209 217 224 244 249 241 238 227 220 228 233 229 228 231 246 261 277 288 292 289 286 288 293 303 306 305 308 311 313 316 316
141 146 165 177 186 189 194 193 194 202 196 197 199 204 190 191 205 215 224 227 233 244 248 242 242 244 248 250 250 256 259 257 264 276 285 293 294 285 287 282 281 288 298 301 303 305 307 310 312
143 157 171 176 187 191 193 198 203 213 213 216 220 221 213 220 226 227 227 235 242 243 242 239 245 245 248 250 246 252 262 265 268 277 282 287 284 286 285 282 283 284 287 291 294 296 301 304 303
171 178 180 190 200 196 196 207 215 215 221 227 228 228 228 227 233 238 241 246 251 253 250 248 250 247 247 250 252 254 261 263 267 272 277 280 283 287 284 283 286 287 287 287 288 290 295 295 295
245 228 216 214 210 208 208 220 229 233 231 228 228 230 233 234 237 240 244 244 248 254 253 254 251 248 249 252 254 257 262 263 266 272 276 277 282 284 282 280 280 284 286 285 283 285 288 289 287
250 239 234 228 223 223 223 230 231 235 238 233 233 238 238 236 240 245 253 253 255 258 258 257 254 251 251 252 256 259 261 262 265 268 273 279 281 281 280 279 280 284 285 284 281 280 282 282 280
250 247 238 234 232 231 231 231 234 236 242 247 247 245 242 242 247 252 259 262 264 264 265 261 257 254 254 257 260 262 264 265 266 269 271 278 278 280 281 280 281 284 283 282 279 277 278 278 277
244 242 243 241 238 233 236 237 239 240 242 250 255 256 253 251 255 260 264 265 264 267 270 266 264 262 263 263 262 265 265 268 270 273 273 276 280 279 279 278 280 280 279 278 277 276 275 277 280
245 246 243 241 239 237 240 244 248 246 246 249 259 267 264 259 263 265 265 265 265 265 267 269 268 269 268 268 267 267 268 270 272 272 276 279 279 279 279 278 279 279 276 275 275 275 276 278 281
254 254 248 243 242 242 243 246 249 252 257 256 258 266 264 265 272 268 267 268 265 263 263 265 266 268 269 270 272 274 274 273 272 274 275 277 280 279 278 278 278 278 276 276 273 271 275 278 281
254 253 250 248 250 252 250 249 250 253 257 258 259 264 263 267 271 272 272 271 271 267 264 265 267 270 273 273 275 276 276 276 274 273 275 276 279 279 280 281 279 275 274 275 274 272 273 277 279
252 251 252 258 260 258 258 258 256 257 260 262 264 267 268 269 270 272 275 276 276 275 274 274 276 279 282 282 282 281 280 280 278 276 277 277 278 281 281 280 282 279 277 276 275 273 273 274 275
250 251 254 258 259 259 261 262 261 263 265 265 266 268 267 273 275 276 278 277 279 279 276 276 278 281 282 284 285 284 282 283 280 279 279 277 277 279 281 284 280 280 279 279 278 275 275 274 274
252 257 261 261 261 260 261 265 266 267 270 270 270 269 270 274 277 276 274 275 277 279 278 277 279 280 282 284 284 283 282 282 281 280 279 280 280 282 287 290 288 285 284 282 281 278 275 273 271
256 264 265 264 266 266 265 267 268 269 269 271 273 274 276 277 275 274 273 274 275 277 277 275 275 278 281 283 283 282 281 282 281 279 281 284 282 283 286 288 290 288 286 287 284 278 274 272 270
255 264 266 263 265 268 264 264 266 270 271 271 272 275 275 274 274 272 271 273 274 276 276 275 274 275 276 279 280 281 282 282 281 279 279 281 282 282 284 286 287 286 287 288 286 282 276 273 271
257 262 265 268 269 271 270 268 270 272 272 270 270 272 272 271 270 272 274 275 275 277 277 276 278 277 276 276 277 280 281 282 282 283 283 282 278 278 282 282 283 286 286 287 287 286 281 278 274
260 264 266 267 269 270 272 274 274 273 272 272 272 272 272 272 274 275 277 278 277 278 277 276 276 276 275 275 277 277 278 281 283 286 287 284 279 279 281 281 280 280 282 286 287 287 285 279 274
266 268 269 270 270 272 273 276 276 276 273 272 273 275 274 274 277 279 279 277 278 278 276 276 276 276 275 276 278 276 276 278 280 283 285 284 282 279 276 277 277 279 281 284 286 287 284 278 275
269 271 273 273 272 274 273 275 276 275 275 272 272 274 276 277 279 279 277 274 275 276 276 275 275 276 276 275 277 277 277 277 278 279 282 283 283 282 278 279 279 280 281 281 282 284 282 276 273
268 271 274 275 274 274 273 273 274 274 274 273 272 273 276 278 279 280 279 275 274 275 275 275 276 276 278 279 280 278 277 278 276 276 279 281 280 278 276 279 277 276 277 278 281 280 279 273 270
270 273 275 276 276 275 274 273 272 271 272 273 272 271 272 275 277 277 277 278 275 273 274 274 275 276 278 279 281 278 278 279 278 278 279 278 277 276 275 275 274 275 275 276 278 276 275 271 268
269 271 275 277 276 275 274 273 273 271 269 270 272 271 272 273 275 277 276 277 276 274 274 274 274 273 274 275 278 276 277 278 278 281 281 280 278 276 275 274 274 275 274 274 275 273 272 270 268
267 267 268 272 275 276 277 276 276 274 272 271 272 272 271 272 273 275 276 275 275 275 273 271 271 270 271 275 278 276 275 278 277 278 281 281 280 278 274 273 273 272 271 272 273 273 270 269 268
265 266 269 271 274 277 278 278 277 278 276 275 274 273 272 273 274 274 275 273 273 273 274 271 271 272 275 275 276 278 276 276 278 278 279 280 280 279 275 274 273 272 271 271 271 270 270 268 267
266 268 269 271 274 277 279 279 281 278 276 276 273 271 271 272 272 273 273 272 272 272 273 273 272 273 275 275 274 274 276 278 278 278 278 278 277 278 274 272 273 272 271 270 271 269 271 269 267
267 268 270 271 271 273 276 277 280 279 278 277 275 272 272 272 272 271 272 273 273 273 272 273 272 273 274 276 276 276 273 275 279 282 278 277 277 275 275 271 270 270 269 269 270 269 269 269 267
267 269 270 271 273 273 274 274 278 277 276 277 277 274 272 270 270 270 270 272 272 271 271 272 271 272 272 274 275 274 273 273 276 279 280 279 277 276 275 273 270 268 267 266 267 266 269 268 267
Height
5893 5893 5894 5895 5896 5896 5896 5896 5896 5896 5897 5897 5897 5897 5897 5898 5899 5901 5898 5897 5896 5896 5895 5895 5894 5894 5894 5893 5893 5893 5893 5892 5892 5892 5891 5891 5890 5890 5889 5889 5888 5887 5887 5886 5885 5884 5884 5883 5882
5893 5893 5895 5895 5896 5896 5896 5896 5896 5896 5897 5897 5897 5897 5897 5897 5897 5897 5897 5896 5896 5895 5895 5895 5894 5894 5894 5893 5893 5893 5893 5892 5892 5892 5891 5891 5890 5890 5889 5888 5888 5887 5886 5885 5885 5884 5883 5882 5881
5893 5893 5895 5895 5895 5896 5896 5896 5896 5896 5896 5896 5896 5896 5897 5897 5896 5896 5896 5896 5895 5895 5895 5894 5893 5894 5893 5893 5893 5893 5893 5892 5892 5891 5891 5890 5890 5889 5888 5888 5887 5886 5886 5885 5884 5883 5883 5882 5881
5893 5894 5895 5895 5894 5895 5895 5895 5895 5895 5895 5896 5896 5896 5896 5896 5896 5895 5895 5895 5895 5894 5894 5894 5893 5893 5893 5893 5893 5893 5892 5892 5891 5891 5890 5890 5889 5888 5888 5887 5886 5886 5885 5884 5883 5883 5882 5881 5880
5893 5893 5894 5893 5894 5894 5894 5894 5894 5895 5895 5895 5895 5895 5895 5895 5895 5894 5894 5894 5894 5893 5893 5893 5893 5893 5892 5892 5892 5892 5892 5891 5891 5890 5890 5889 5888 5887 5887 5886 5885 5885 5884 5883 5883 5882 5881 5880 5880
5893 5893 5894 5893 5893 5893 5893 5893 5894 5894 5894 5894 5894 5895 5894 5894 5894 5894 5894 5893 5893 5893 5892 5892 5892 5892 5891 5891 5891 5891 5891 5890 5890 5890 5889 5888 5887 5887 5886 5885 5884 5884 5883 5882 5882 5881 5880 5879 5879
5893 5893 5892 5893 5893 5893 5893 5893 5893 5893 5893 5893 5893 5894 5893 5893 5893 5893 5893 5893 5892 5892 5891 5891 5891 5891 5890 5890 5890 5890 5890 5889 5889 5888 5888 5887 5886 5885 5885 5884 5883 5882 5882 5881 5880 5879 5879 5878 5878
5891 5892 5891 5892 5892 5892 5892 5892 5892 5892 5892 5892 5892 5892 5893 5893 5892 5892 5892 5892 5891 5891 5890 5890 5889 5889 5889 5889 5888 5888 5888 5888 5887 5887 5886 5885 5885 5884 5883 5882 5881 5881 5880 5879 5878 5878 5877 5877 5876
5890 5892 5891 5891 5891 5891 5891 5891 5891 5891 5891 5891 5891 5891 5891 5891 5891 5891 5891 5890 5890 5890 5889 5889 5888 5888 5888 5887 5887 5887 5887 5886 5886 5885 5885 5884 5883 5882 5881 5880 5880 5879 5878 5877 5877 5876 5875 5875 5874
5889 5890 5889 5890 5890 5890 5890 5890 5890 5890 5890 5890 5890 5890 5890 5890 5890 5890 5889 5889 5889 5888 5888 5887 5887 5887 5886 5886 5886 5885 5885 5884 5884 5883 5882 5882 5881 5880 5879 5879 5878 5877 5876 5875 5874 5874 5873 5873 5872
5887 5888 5888 5888 5888 5888 5888 5888 5889 5889 5889 5889 5889 5889 5889 5889 5888 5888 5888 5888 5887 5887 5886 5886 5885 5885 5884 5884 5884 5883 5883 5882 5882 5881 5880 5880 5879 5878 5877 5876 5875 5875 5874 5873 5872 5872 5871 5870 5870
5886 5886 5886 5887 5887 5887 5887 5887 5887 5887 5888 5888 5887 5887 5887 5887 5887 5887 5886 5886 5886 5885 5885 5884 5884 5883 5883 5882 5882 5881 5881 5880 5879 5879 5878 5877 5877 5876 5875 5874 5873 5872 5871 5870 5870 5869 5869 5868 5867
5885 5885 5885 5885 5885 5885 5885 5886 5886 5886 5886 5886 5886 5886 5885 5885 5885 5885 5885 5885 5884 5884 5883 5883 5882 5882 5881 5880 5880 5879 5879 5878 5877 5876 5876 5875 5874 5873 5872 5872 5871 5870 5869 5868 5867 5867 5866 5866 5865
5883 5883 5884 5884 5884 5884 5884 5884 5884 5884 5884 5884 5884 5884 5884 5884 5883 5883 5883 5883 5882 5882 5882 5881 5881 5880 5879 5879 5878 5877 5876 5875 5875 5874 5873 5873 5872 5871 5870 5869 5868 5867 5866 5866 5865 5864 5864 5863 5863
5882 5882 5883 5883 5882 5882 5883 5883 5882 5882 5882 5882 5882 5882 5882 5882 5882 5882 5881 5881 5881 5880 5880 5879 5879 5878 5878 5877 5876 5875 5874 5873 5873 5872 5871 5870 5869 5868 5867 5867 5866 5865 5864 5863 5862 5862 5861 5861 5860
5881 5881 5881 5881 5881 5881 5883 5882 5881 5881 5881 5881 5880 5880 5880 5880 5880 5880 5879 5879 5879 5878 5878 5877 5877 5876 5875 5875 5874 5873 5872 5871 5870 5869 5869 5868 5867 5866 5865 5864 5863 5862 5861 5861 5860 5859 5859 5858 5858
5879 5880 5880 5880 5880 5880 5880 5880 5880 5879 5879 5879 5879 5878 5878 5878 5878 5878 5877 5877 5877 5876 5876 5875 5875 5874 5873 5872 5871 5871 5870 5869 5868 5867 5866 5865 5864 5864 5863 5862 5861 5860 5859 5858 5858 5857 5856 5856 5855
5878 5878 5878 5878 5878 5878 5878 5878 5878 5877 5877 5877 5877 5876 5876 5876 5876 5875 5875 5875 5874 5874 5873 5873 5872 5872 5871 5870 5869 5868 5868 5867 5866 5865 5864 5863 5862 5861 5860 5859 5859 5858 5857 5856 5855 5855 5854 5853 5853
5876 5876 5876 5876 5876 5876 5876 5876 5876 5875 5875 5875 5874 5874 5874 5873 5873 5873 5872 5872 5872 5871 5871 5870 5870 5869 5869 5868 5867 5866 5866 5865 5864 5862 5861 5861 5860 5859 5858 5857 5856 5856 5855 5854 5853 5852 5852 5851 5851
5874 5874 5874 5874 5874 5874 5874 5874 5873 5873 5872 5872 5872 5872 5871 5871 5870 5870 5870 5869 5869 5868 5868 5868 5867 5867 5866 5865 5865 5864 5863 5862 5861 5860 5859 5858 5857 5856 5856 5855 5854 5853 5853 5852 5851 5850 5850 5849 5848
5872 5872 5872 5872 5872 5872 5872 5872 5871 5870 5870 5869 5869 5869 5869 5868 5868 5867 5867 5867 5866 5865 5865 5865 5864 5864 5863 5863 5862 5861 5860 5859 5859 5858 5857 5856 5855 5854 5853 5853 5852 5851 5850 5850 5849 5848 5848 5847 5846
5869 5869 5869 5869 5870 5870 5870 5870 5869 5867 5867 5867 5866 5866 5866 5865 5865 5864 5864 5864 5863 5863 5862 5862 5861 5861 5860 5860 5859 5858 5857 5856 5856 5855 5854 5853 5852 5851 5851 5850 5850 5849 5848 5848 5847 5846 5845 5845 5844
5867 5867 5867 5867 5867 5867 5867 5867 5867 5865 5864 5864 5864 5863 5863 5862 5862 5861 5861 5861 5860 5860 5859 5859 5858 5858 5857 5856 5856 5855 5854 5853 5852 5852 5851 5851 5850 5849 5848 5848 5847 5847 5846 5845 5845 5844 5843 5842 5842
5864 5864 5864 5864 5864 5865 5864 5864 5863 5862 5862 5861 5860 5860 5859 5859 5858 5858 5857 5857 5857 5856 5856 5855 5855 5854 5854 5853 5852 5851 5851 5850 5849 5849 5848 5848 5847 5846 5845 5845 5844 5844 5843 5842 5842 5841 5840 5840 5839
5861 5862 5862 5861 5861 5861 5860 5860 5860 5859 5858 5857 5857 5856 5856 5855 5855 5854 5854 5853 5853 5853 5852 5851 5851 5851 5850 5849 5849 5848 5847 5847 5846 5845 5845 5844 5844 5843 5842 5842 5841 5841 5840 5839 5839 5838 5838 5837 5837
5858 5858 5860 5859 5858 5857 5856 5856 5856 5855 5854 5854 5853 5852 5852 5851 5851 5850 5850 5850 5849 5849 5848 5848 5847 5847 5846 5846 5845 5844 5844 5844 5843 5842 5841 5841 5840 5840 5839 5838 5838 5837 5837 5836 5836 5835 5835 5834 5834
5854 5854 5855 5855 5854 5854 5853 5852 5852 5851 5850 5850 5849 5848 5848 5847 5847 5846 5846 5845 5845 5845 5844 5844 5843 5843 5843 5842 5842 5841 5840 5840 5839 5839 5838 5837 5837 5836 5835 5835 5835 5834 5833 5833 5832 5832 5832 5831 5831
5850 5850 5850 5850 5850 5850 5849 5848 5848 5847 5846 5846 5845 5844 5844 5843 5843 5842 5842 5841 5841 5840 5840 5840 5839 5839 5838 5838 5838 5837 5836 5836 5836 5835 5834 5834 5833 5832 5832 5831 5831 5830 5830 5829 5829 5829 5829 5828 5828
5846 5846 5845 5845 5845 5845 5845 5846 5843 5842 5841 5841 5840 5840 5839 5839 5838 5838 5837 5836 5836 5836 5835 5835 5834 5834 5834 5834 5833 5833 5832 5832 5831 5831 5830 5830 5829 5828 5828 5827 5827 5826 5826 5826 5825 5825 5825 5825 5824
5840 5840 5841 5841 5840 5840 5840 5842 5838 5837 5836 5835 5835 5834 5834 5833 5833 5833 5832 5832 5831 5831 5831 5830 5830 5830 5829 5829 5829 5828 5828 5827 5827 5827 5826 5825 5825 5824 5824 5823 5822 5822 5822 5822 5821 5821 5821 5821 5821